www.pogodaiklimat.ru

Погода и климат >> Архив погоды >> Индия >> Бихар >> Пурнеа


ПОГОДА в Пурнеа

  • Прогноз погоды в Пурнеа
  • Монитор погоды в Пурнеа

АРХИВ ПОГОДЫ в Пурнеа

Время (UTC), дата Ветер
(напр.,м/с)
 
Видим.   Явления Облачность Т
(С)
Тd
(С)
f
(%)
Тe
(С)
Тes
(С)
Комфортность P
(гПа)
Po
(гПа)
Тmin
(С)
Tmax
(С)
R
(мм)
R24
(мм)
S
(см)
12 12.01 штиль 0 1000 м дымка 4/4 600 м
[Sc]
+20.2 +14.8 71 +22 +22 комфорт 1015.7 1016.0 +24.8
00 13.01 штиль 0 1000 м туман на расстоянии ясно +9.8 +9.4 97 +9 +9 1016.9 1017.0
03 13.01 штиль 0 1000 м туман на расстоянии ясно +11.6 +11.2 97 +11 +16 1019.5 1020.0 +9.2
06 13.01 штиль 0 2000 м мгла {туман} ясно +22.4 +13.0 55 +25 +39 комфорт 1018.5 1019.0
09 13.01 СЗ 1 4000 м ясно +25.0 +12.1 45 +27 +32 жарко 1015.5 1016.0
12 13.01 штиль 0 2000 м мгла ясно +20.6 +14.5 68 +23 +23 комфорт 1014.3 1014.0 +26.6
00 14.01 штиль 0 1000 м туман местами ясно +10.2 +10.2 100 +9 +9 1014.7 1015.0
03 14.01 ЮЗ 1 1000 м туман на расстоянии ясно +12.2 +11.4 95 +12 +16 1017.2 1017.0 +9.7
06 14.01 ЮЗ 2 2000 м дымка {туман} ясно +20.4 +12.6 61 +23 +35 комфорт 1016.6 1017.0
09 14.01 штиль 0 2000 м мгла ясно +23.6 +12.0 48 +25 +32 комфорт 1013.2 1013.0
12 14.01 штиль 0 1000 м мгла ясно +19.4 +12.3 63 +21 +21 комфорт 1013.5 1014.0 +24.4
00 15.01 штиль 0 1000 м туман на расстоянии ясно +10.6 +10.2 97 +10 +10 1014.1 1014.0
09 15.01 З 1 4000 м ясно +22.6 +6.1 34 +23 +29 комфорт 1015.6 1016.0
12 15.01 штиль 0 2000 м мгла ясно +17.2 +10.0 63 +17 +17 1016.3 1016.0 +24.8
15 15.01 штиль 0 2000 м мгла ясно +17.2 +10.0 63 +17 +17 1016.3 1016.0 +24.8
00 16.01 штиль 0 1000 м туман ясно +9.8 +9.4 97 +9 +9 1014.7 1015.0
03 16.01 штиль 0 1000 м туман на расстоянии ясно +10.2 +9.4 95 +9 +15 1020.4 1020.0 +8.5
06 16.01 ЮЗ 1 2000 м мгла {туман} ясно +20.6 +10.8 53 +23 +36 комфорт 1018.7 1019.0
09 16.01 ЮЗ 1 4000 м ясно +23.6 +10.6 44 +25 +31 комфорт 1016.0 1016.0
12 16.01 штиль 0 2000 м мгла 3/3 600 м
[Sc]
+19.6 +21.9 100 +22 +22 комфорт 1015.0 1015.0 +24.4
00 17.01 штиль 0 1000 м туман на расстоянии ясно +11.2 +9.4 89 +11 +11 1014.8 1015.0
03 17.01 штиль 0 1000 м туман на расстоянии ясно +11.0 +10.6 97 +10 +16 1017.4 1017.0 +8.5
06 17.01 З 1 2000 м мгла {туман} ясно +21.0 +12.9 60 +25 +37 комфорт 1016.9 1017.0
09 17.01 В 1 4000 м ясно +24.4 +12.6 48 +26 +32 жарко 1014.3 1014.0
12 17.01 штиль 0 2000 м мгла ясно +21.2 +15.1 68 +24 +24 комфорт 1012.5 1013.0 +25.5
00 18.01 штиль 0 1000 м туман местами ясно +9.6 +8.8 95 +9 +9 1014.1 1014.0
03 18.01 штиль 0 1000 м туман на расстоянии ясно +11.2 +10.8 97 +10 +16 1017.2 1017.0 +9.0
06 18.01 СЗ 1 2000 м мгла {туман} ясно +20.6 +13.3 63 +24 +37 комфорт 1016.6 1017.0
09 18.01 З 1 2000 м мгла ясно +23.6 +12.4 49 +25 +31 комфорт 1013.9 1014.0
12 18.01 штиль 0 2000 м мгла ясно +20.6 +15.2 71 +23 +23 комфорт 1013.0 1013.0 +24.8
00 19.01 штиль 0 1000 м туман на расстоянии ясно +10.2 +9.8 97 +9 +9 1015.5 1016.0
03 19.01 штиль 0 1000 м туман на расстоянии ясно +12.0 +10.9 93 +11 +17 1018.4 1018.0 +9.5
06 19.01 З 1 2000 м мгла ясно +21.0 +15.3 70 +25 +38 комфорт 1018.2 1018.0

 

Местоположение метеостанции Пурнеа (Бихар, Индия): широта 25.27 долгота 87.47 высота над уровнем моря 38 м.

В архиве по умолчанию представлена погода в Пурнеа за последнюю неделю. Архивные данные за месяц целиком и за предыдущие месяцы, начиная с января 2011 года, Вы можете получить, выбрав интересующий диапазон дат из раскрывающегося списка и нажав кнопку "Ввод!".


*Определитесь, кто Вы:
робот инопланетянин человек

Внимание! Время в таблицах - всемирное. Для получения местного времени необходимо прибавить поправку, которая равна 5.5 ч.

Смотрите также архив погоды в соседних городах и на ближайших метеорологических станциях:

Погода в Бхагалпуре (Бихар, Индия) (53 км)
Погода в Малда (Западная Бенгалия, Индия) (72 км)
Погода в Бадалхачги (Бангладеш) (115 км)
Погода в Динаджпуре (Бангладеш) (129 км)
Погода в Балургхате (Западная Бенгалия, Индия) (132 км)
Погода в Биратнагаре (Непал) (136 км)
Погода в Димле (Бангладеш) (142 км)
Погода в Бахарампуре (Западная Бенгалия, Индия) (150 км)
Погода в Саидпуре (Бангладеш) (155 км)
Погода в Раджшахи (Бангладеш) (159 км)

Пояснения к столбцам:

Ветер - указаны скорость ветра в м/с - средняя за 10 мин, порывы в срок и между сроками (в фигурных скобках) и направление, откуда дует ветер: С - северный, СВ - северо-восточный, В - восточный, ЮВ - юго-восточный, Ю - южный, ЮЗ - юго-западный, З - западный, СЗ - северо-западный.
Видимость - горизонтальная дальность видимости в метрах или километрах. При видимости от 1 до 10 км при отсутствии осадков обычно наблюдается дымка, при ухудшении видимости до 1 км и менее - туман. В сухую погоду видимость может ухудшаться дымом, пылью или мглою.
Явления - указаны атмосферные явления, наблюдавшиеся в срок или в последний час перед сроком; фигурными скобками обозначены явления, наблюдавшиеся между сроками (за 1-3 часа до срока); квадратными скобками обозначены град или гололедные отложения с указанием их диаметра в мм.
Облачность - указаны через наклонную черту общая и нижняя облачность в баллах и высота нижней границы облаков в метрах; квадратными скобками обозначены формы облаков: Ci - перистые, Cs - перисто-слоистые, Cc - перисто-кучевые, Ac - высококучевые, As - высокослоистые, Sc - слоисто-кучевые, Ns - слоисто-дождевые, Cu - кучевые, Cb - кучево-дождевые. Подробнее классификацию облаков см. в Атласе облаков (PDF).
T - Температура воздуха - температура, измеренная на высоте 2 м над землей.
Td - Температура точки росы - температура, при понижении до которой содержащийся в воздухе водяной пар достигнет насыщения.
f - Относительная влажность воздуха - влажноcть воздуха, измеренная на высоте 2 м над землей.
Te - Эффективная температура - температура, которую ощущает одетый по сезону человек в тени. Характеристика душности погоды. При расчете учитывается влияние влажности воздуха и скорости ветра на теплоощущения человека.
Tes - Эффективная температура на солнце - температура, которую ощущает человек, с поправкой на солнечный нагрев. Характеристика знойности погоды. Зависит от высоты солнца над горизонтом, облачности и скорости ветра. Ночью, в пасмурную погоду, а также при ветре 12 м/с и более поправка равна нулю.
P - Атмосферное давление - приведенное к уровню моря атмосферное давление.
Po - Атмосферное давление - измеренное на уровне метеостанции атмосферное давление.
Tmin - Минимальная температура - минимум температуры воздуха на высоте 2 м над землей.
Tmax - Максимальная температура - максимум температуры воздуха на высоте 2 м над землей.
R - Количество осадков - Количество выпавших осадков за период времени, мм. При наведении курсора мыши на число - период времени, за который выпало указанное количество осадков.
R24 - Количество осадков - Количество выпавших осадков за 24 часа, мм.
S - Снежный покров - Высота снежного покрова, см. При наведении курсора мыши на число - состояние снежного покрова и степень покрытия местности в баллах.